Content
SEND FEEDBACK

Daily
Averages
Monthly
Summary
United States of America

CAPUTA, SOUTH DAKOTA


Home > North America > United States > South Dakota
Elevation: 3149 feet     Latitude: 44 03N     Longitude: 103 04W

WEATHER
 
SELECT A DAY
Number of Records: 204,993;   Date Range: 1/1/95 - 12/18/14
 
SHARE

PRINT THIS DATA

[ ← Previous Day ]
WEATHER ALMANAC - MARCH 24, 2014
[ Next Day → ]
[ °C ]   °F
Weather ElementAverageHighLow
Temperature25.6 °F33.1 °F (2:52 pm)19 °F (10:52 pm)
Dewpoint18.6 °F24.8 °F (1:20 am)10 °F (8:52 pm)
Humidity75.5 %93 % (1:20 am)57 % (4:52 pm)
Barometer30.33 in30.47 in (9:52 pm)30.21 in (1:20 am)
Wind Speed13.6 mph29.9 mph (3:52 pm)
Wind Gust39.1 mph (3:52 pm)
Weather ElementAverage
Visibility6.8 mi
Wind DirectionSSW (188.1 °)

Weather ElementTotal
Precipitation0.08 in
Heating Degree Days39 (Base 65)
Averaged from 42 records on March 24, 2014
WEATHER CONDITIONS BREAKOUT
WIND DIRECTION BREAKOUT
WEATHER BY HOUR - MARCH 24, 2014
[ °C ]   °F
Local TimeTemperatureDewpointHumidityBarometerVisibilityWind DirectionWind SpeedGust SpeedPrecipitationEventsConditions
12:47 AM26.6 °F23.0 °F86 %30.22 in8.0 miNorth (350°)9.2 mph0.00 inSnowLight Snow
12:52 AM27.0 °F23.0 °F85 %30.32 in8.0 miNorth (350°)8.1 mph0.00 inSnowLight Snow
1:20 AM26.6 °F24.8 °F93 %30.21 in7.0 miNorth (350°)6.9 mph0.00 inSnowLight Snow
1:46 AM26.6 °F21.2 °F80 %30.21 in9.0 miNorth (360°)9.2 mph0.00 inOvercast
1:52 AM27.0 °F21.0 °F78 %30.31 in10.0 miNorth (360°)15.0 mph0.00 inSnowLight Snow
2:12 AM24.8 °F19.4 °F80 %30.21 in9.0 miNorth (360°)12.7 mph0.00 inOvercast
2:36 AM26.6 °F19.4 °F74 %30.21 in9.0 miNorth (360°)13.8 mph0.00 inSnowLight Snow
2:52 AM25.0 °F19.9 °F81 %30.31 in10.0 miNorth (10°)11.5 mph0.00 inOvercast
3:25 AM24.8 °F21.2 °F86 %30.21 in10.0 miNorth (10°)12.7 mph0.00 inOvercast
3:52 AM25.0 °F21.0 °F85 %30.32 in7.0 miNorth (360°)10.4 mph0.00 inSnowLight Snow
4:52 AM25.0 °F21.0 °F85 %30.32 in8.0 miNorth (10°)13.8 mph0.00 inSnowLight Snow
5:52 AM25.0 °F19.9 °F81 %30.35 in10.0 miNorth (360°)15.0 mph0.00 inOvercast
6:52 AM24.1 °F19.0 °F81 %30.38 in10.0 miNorth (10°)9.2 mphOvercast
7:38 AM24.8 °F19.4 °F80 %30.28 in1.0 miNorth (10°)12.7 mph0.00 inSnowLight Snow
7:52 AM23.0 °F19.0 °F85 %30.41 in1.0 miNNE (20°)11.5 mph0.00 inSnowLight Snow
8:02 AM23.0 °F19.4 °F86 %30.29 in0.8 miNNE (20°)12.7 mph0.00 inSnowLight Snow
8:39 AM23.0 °F17.6 °F80 %30.30 in1.0 miNorth (10°)12.7 mph0.02 inSnowLight Snow
8:52 AM23.0 °F18.0 °F81 %30.43 in2.5 miNNE (20°)12.7 mph0.02 inSnowLight Snow
9:00 AM23.0 °F17.6 °F80 %30.30 in4.0 miNorth (10°)12.7 mph0.00 inSnowLight Snow
9:10 AM23.0 °F17.6 °F80 %30.30 in2.0 miNNE (20°)10.4 mph0.00 inSnowLight Snow
9:18 AM23.0 °F19.4 °F86 %30.30 in2.0 miNorth (10°)11.5 mph0.00 inSnowLight Snow
9:39 AM24.8 °F19.4 °F80 %30.31 in1.8 miNorth (10°)9.2 mph0.00 inSnowLight Snow
9:48 AM24.8 °F19.4 °F80 %30.31 in2.0 miNorth (10°)6.9 mph0.00 inSnowLight Snow
9:52 AM24.1 °F19.0 °F81 %30.44 in2.0 miNorth (10°)4.6 mph0.00 inSnowLight Snow
10:03 AM24.8 °F19.4 °F80 %30.31 in2.5 miNorth (10°)6.9 mph0.01 inSnowLight Snow
10:31 AM26.6 °F19.4 °F74 %30.31 in3.0 miNorth (10°)8.1 mph0.01 inSnowLight Snow
10:47 AM26.6 °F21.2 °F80 %30.30 in2.5 miNorth (10°)9.2 mph0.01 inSnowLight Snow
10:52 AM26.1 °F21.0 °F81 %30.43 in3.0 miNorth (10°)9.2 mph0.01 inSnowLight Snow
11:52 AM28.0 °F19.0 °F69 %30.41 in10.0 miNorth (350°)17.3 mph0.00 inOvercast
12:52 PM28.9 °F19.0 °F67 %30.39 in10.0 miNNW (340°)15.0 mph25.3 mphOvercast
1:41 PM30.2 °F19.4 °F64 %30.25 in10.0 miNNW (340°)20.7 mph27.6 mphOvercast
1:52 PM32.0 °F19.0 °F59 %30.36 in10.0 miNNW (340°)20.7 mph27.6 mphOvercast
2:52 PM33.1 °F19.9 °F59 %30.35 in10.0 miNorth (350°)19.6 mphOvercast
3:52 PM32.0 °F19.0 °F59 %30.34 in10.0 miNorth (350°)29.9 mph39.1 mphMostly Cloudy
4:52 PM30.9 °F17.1 °F57 %30.35 in10.0 miNNW (340°)28.8 mphOvercast
5:52 PM28.9 °F17.1 °F61 %30.37 in10.0 miNNW (340°)23.0 mph32.2 mphScattered Clouds
6:52 PM27.0 °F15.1 °F61 %30.38 in10.0 miNNW (340°)20.7 mph29.9 mphClear
7:52 PM26.1 °F14.0 °F60 %30.40 in10.0 miNNW (340°)21.9 mph31.1 mphClear
8:52 PM21.9 °F10.0 °F60 %30.45 in10.0 miNorth (10°)18.4 mphMostly Cloudy
9:52 PM19.9 °F10.0 °F65 %30.47 in10.0 miNorth (350°)12.7 mphClear
10:52 PM19.0 °F10.9 °F71 %30.47 in10.0 miNNW (340°)11.5 mphClear
11:52 PM19.9 °F10.9 °F68 %30.47 in10.0 miNNW (330°)12.7 mphClear
Hourly data recorded from KRAP, located miles away from Caputa, South Dakota







STORIES FROM OUR PARTNERS